Weather History for Boonville, MO

Change the Weather History Date:

Sunday, November 17, 2013

  Actual Average Record
Temperature  
Mean Temperature 60 °F -  
Max Temperature 72 °F 52 °F 80 °F (1952)
Min Temperature 48 °F 34 °F 4 °F (1959)
Degree Days  
Heating Degree Days 5    
Growing Degree Days 10 (Base 50)    
Moisture  
Dew Point 43 °F    
Average Humidity 54    
Maximum Humidity 87    
Minimum Humidity 14    
Precipitation  
Precipitation 0.00 in - - ()
Sea Level Pressure  
Sea Level Pressure 29.62 in    
Wind  
Wind Speed 13 mph (WSW)    
Max Wind Speed 26 mph    
Max Gust Speed 40 mph    
Visibility 10 miles    
Events      
Averages and records for this station are not official NWS values.
T = Trace of Precipitation, MM = Missing Value Source: NWS Daily Summary

Daily Weather History Graph

Daily Weather History Graph

Search for Another Location

Airport:

Trip Planner

Search our weather history database for the weather conditions in past years. The results will help you decide how hot, cold, wet, or windy it might be!

Date:

Astronomy

Nov. 17, 2013 Rise Set
Actual Time 6:56 AM CST 4:55 PM CST
Civil Twilight 6:27 AM CST 5:23 PM CST
Nautical Twilight 5:54 AM CST 5:56 PM CST
Astronomical Twilight 5:23 AM CST 6:27 PM CST
Moon 5:12 PM CST (11/17) 6:50 AM CST (11/17)
Length of Visible Light 10h 56m
Length of Day
9h 59m
Full, 100% of the Moon is Illuminated
Nov 17
Full
Nov 25
Last Quarter
Dec 2
New
Dec 9
First Quarter
Dec 17
Full

Hourly Weather History & Observations

Time (CST) Temp. Dew Point Humidity Pressure Visibility Wind Dir Wind Speed Gust Speed Precip Events Conditions
12:15 AM 65.5 °F 58.8 °F 79% 29.51 in 10.0 mi South 12.7 mph 17.3 mph N/A   Overcast
12:35 AM 65.5 °F 58.6 °F 79% 29.50 in 10.0 mi South 8.1 mph 16.1 mph N/A   Mostly Cloudy
12:55 AM 65.3 °F 58.5 °F 78% 29.49 in 10.0 mi South 10.4 mph - N/A   Scattered Clouds
1:15 AM 64.9 °F 58.6 °F 80% 29.48 in 10.0 mi South 10.4 mph - N/A   Mostly Cloudy
1:35 AM 64.8 °F 58.8 °F 81% 29.47 in 10.0 mi South 10.4 mph - N/A   Overcast
1:55 AM 63.9 °F 58.6 °F 83% 29.46 in 10.0 mi South 9.2 mph - N/A   Overcast
2:15 AM 63.1 °F 59.0 °F 86% 29.46 in 10.0 mi South 9.2 mph - N/A   Mostly Cloudy
2:35 AM 63.5 °F 59.5 °F 87% 29.46 in 10.0 mi South 9.2 mph - N/A   Mostly Cloudy
2:55 AM 64.8 °F 60.1 °F 85% 29.45 in 10.0 mi South 9.2 mph - N/A   Scattered Clouds
3:15 AM 65.3 °F 60.3 °F 84% 29.44 in 10.0 mi South 9.2 mph - N/A   Clear
3:35 AM 65.5 °F 60.3 °F 83% 29.43 in 10.0 mi South 9.2 mph - N/A   Clear
3:55 AM 65.7 °F 60.4 °F 83% 29.43 in 10.0 mi South 6.9 mph - N/A   Clear
4:15 AM 66.0 °F 60.6 °F 83% 29.43 in 10.0 mi South 9.2 mph - N/A   Mostly Cloudy
4:35 AM 66.6 °F 61.0 °F 82% 29.42 in 10.0 mi South 16.1 mph 19.6 mph N/A   Mostly Cloudy
4:55 AM 67.5 °F 61.2 °F 80% 29.41 in 10.0 mi South 11.5 mph 20.7 mph N/A   Scattered Clouds
5:15 AM 67.5 °F 61.2 °F 80% 29.40 in 10.0 mi South 13.8 mph 20.7 mph N/A   Clear
5:35 AM 68.0 °F 61.2 °F 79% 29.39 in 10.0 mi South 12.7 mph 21.9 mph N/A   Clear
5:55 AM 68.7 °F 61.2 °F 77% 29.38 in 10.0 mi South 12.7 mph 19.6 mph N/A   Clear
6:15 AM 68.7 °F 61.2 °F 77% 29.38 in 10.0 mi SSW 9.2 mph 16.1 mph N/A   Scattered Clouds
6:35 AM 69.3 °F 61.0 °F 75% 29.38 in 10.0 mi SSW 10.4 mph 16.1 mph N/A   Mostly Cloudy
6:55 AM 69.8 °F 61.0 °F 73% 29.38 in 10.0 mi SSW 11.5 mph 19.6 mph N/A   Mostly Cloudy
7:15 AM 70.2 °F 61.2 °F 73% 29.38 in 10.0 mi SSW 13.8 mph 21.9 mph N/A   Overcast
7:35 AM 70.5 °F 61.2 °F 72% 29.38 in 10.0 mi SSW 17.3 mph 25.3 mph N/A   Mostly Cloudy
7:55 AM 70.9 °F 60.6 °F 70% 29.38 in 10.0 mi SSW 16.1 mph 24.2 mph N/A   Mostly Cloudy
8:15 AM 71.6 °F 60.1 °F 67% 29.39 in 10.0 mi SW 12.7 mph 25.3 mph N/A   Overcast
8:35 AM 71.8 °F 58.6 °F 63% 29.39 in 10.0 mi SW 25.3 mph 38.0 mph N/A   Mostly Cloudy
8:55 AM 72.3 °F 56.7 °F 58% 29.40 in 10.0 mi SW 23.0 mph 34.5 mph N/A   Mostly Cloudy
9:15 AM 72.1 °F 54.9 °F 54% 29.41 in 10.0 mi SW 26.5 mph 38.0 mph N/A   Mostly Cloudy
9:35 AM 72.3 °F 53.1 °F 51% 29.42 in 10.0 mi SW 26.5 mph 36.8 mph N/A   Scattered Clouds
9:55 AM 71.2 °F 51.1 °F 49% 29.45 in 10.0 mi WSW 24.2 mph 39.1 mph N/A   Scattered Clouds
10:15 AM 70.0 °F 48.2 °F 46% 29.47 in 10.0 mi WSW 26.5 mph 40.3 mph N/A   Scattered Clouds
10:35 AM 67.6 °F 43.5 °F 42% 29.50 in 10.0 mi WSW 24.2 mph 35.7 mph N/A   Clear
10:55 AM 65.7 °F 42.6 °F 43% 29.53 in 10.0 mi WSW 18.4 mph 29.9 mph N/A   Clear
11:15 AM 64.6 °F 42.1 °F 44% 29.55 in 10.0 mi West 23.0 mph 33.4 mph N/A   Clear
11:35 AM 63.0 °F 41.4 °F 45% 29.58 in 10.0 mi West 17.3 mph 32.2 mph N/A   Clear
11:55 AM 61.7 °F 40.5 °F 46% 29.58 in 10.0 mi West 17.3 mph 29.9 mph N/A   Clear
12:15 PM 61.5 °F 39.4 °F 44% 29.59 in 10.0 mi WNW 15.0 mph 27.6 mph N/A   Clear
12:35 PM 62.2 °F 38.3 °F 41% 29.60 in 10.0 mi West 16.1 mph 26.5 mph N/A   Clear
12:55 PM 62.8 °F 37.4 °F 39% 29.60 in 10.0 mi West 8.1 mph 24.2 mph N/A   Clear
1:15 PM 63.9 °F 36.0 °F 36% 29.60 in 10.0 mi West 18.4 mph 24.2 mph N/A   Clear
1:35 PM 65.1 °F 34.7 °F 32% 29.60 in 10.0 mi WSW 13.8 mph 26.5 mph N/A   Clear
1:55 PM 66.0 °F 33.3 °F 30% 29.60 in 10.0 mi WSW 20.7 mph 27.6 mph N/A   Clear
2:15 PM 67.1 °F 31.1 °F 26% 29.60 in 10.0 mi WSW 16.1 mph 28.8 mph N/A   Clear
2:35 PM 67.5 °F 29.8 °F 25% 29.61 in 10.0 mi WSW 18.4 mph 28.8 mph N/A   Clear
2:55 PM 67.8 °F 28.6 °F 23% 29.62 in 10.0 mi WSW 16.1 mph 28.8 mph N/A   Clear
3:15 PM 68.2 °F 23.2 °F 18% 29.64 in 10.0 mi West 23.0 mph 36.8 mph N/A   Clear
3:35 PM 67.8 °F 16.2 °F 14% 29.66 in 10.0 mi West 23.0 mph 38.0 mph N/A   Clear
3:55 PM 65.8 °F 15.6 °F 14% 29.69 in 10.0 mi West 21.9 mph 34.5 mph N/A   Clear
4:15 PM 64.4 °F 16.3 °F 16% 29.71 in 10.0 mi West 18.4 mph 34.5 mph N/A   Clear
4:35 PM 63.1 °F 17.6 °F 17% 29.74 in 10.0 mi West 19.6 mph 26.5 mph N/A   Clear
4:55 PM 62.1 °F 19.0 °F 19% 29.76 in 10.0 mi West 11.5 mph 18.4 mph N/A   Clear
5:15 PM 61.0 °F 20.1 °F 21% 29.78 in 10.0 mi West 9.2 mph - N/A   Clear
5:35 PM 60.8 °F 19.8 °F 21% 29.80 in 10.0 mi West 13.8 mph 23.0 mph N/A   Clear
5:55 PM 60.3 °F 20.1 °F 21% 29.82 in 10.0 mi West 9.2 mph 17.3 mph N/A   Clear
6:15 PM 59.0 °F 21.7 °F 24% 29.83 in 10.0 mi WNW 10.4 mph - N/A   Clear
6:35 PM 58.6 °F 22.8 °F 25% 29.85 in 10.0 mi WNW 9.2 mph 17.3 mph N/A   Clear
6:55 PM 57.9 °F 24.3 °F 27% 29.86 in 10.0 mi WNW 9.2 mph - N/A   Clear
7:15 PM 57.2 °F 25.0 °F 29% 29.88 in 10.0 mi NW 10.4 mph - N/A   Clear
7:35 PM 55.2 °F 27.9 °F 35% 29.90 in 10.0 mi NNW 6.9 mph - N/A   Clear
7:55 PM 52.9 °F 33.6 °F 48% 29.91 in 10.0 mi NW 5.8 mph - N/A   Clear
8:15 PM 51.8 °F 35.2 °F 53% 29.92 in 10.0 mi WNW 3.5 mph - N/A   Clear
8:35 PM 51.1 °F 35.6 °F 55% 29.93 in 10.0 mi NW 4.6 mph - N/A   Clear
8:55 PM 50.4 °F 35.6 °F 57% 29.94 in 10.0 mi WNW 5.8 mph - N/A   Clear
9:15 PM 50.4 °F 35.4 °F 57% 29.95 in 10.0 mi WNW 3.5 mph - N/A   Clear
9:35 PM 50.5 °F 35.1 °F 55% 29.96 in 10.0 mi West 4.6 mph - N/A   Clear
9:55 PM 48.9 °F 35.1 °F 59% 29.98 in 10.0 mi WNW 4.6 mph - N/A   Clear
10:15 PM 48.9 °F 35.2 °F 59% 29.98 in 10.0 mi WNW 4.6 mph - N/A   Clear
10:35 PM 48.4 °F 35.6 °F 61% 29.99 in 10.0 mi WNW 5.8 mph - N/A   Clear
10:55 PM 48.2 °F 36.1 °F 63% 30.00 in 10.0 mi WNW 4.6 mph - N/A   Clear
11:15 PM 48.0 °F 36.1 °F 63% 30.02 in 10.0 mi West 5.8 mph - N/A   Clear
11:35 PM 48.2 °F 36.5 °F 64% 30.03 in 10.0 mi West 4.6 mph - N/A   Clear
11:55 PM 48.2 °F 36.5 °F 64% 30.04 in 10.0 mi WNW 3.5 mph - N/A   Clear